{"data":{"norad_id":63756,"epoch":"2026-09-20T05:50:48.921792Z","epoch_age_seconds":171873,"freshness":"FRESH","line1":"1 63756U 25089F   26263.24362178  .00131083  00000+0  10082-2 0  9991","line2":"2 63756  43.0005 199.5512 0001578 272.9434  87.1253 15.70858376 80627","mean_motion":15.70858376,"eccentricity":0.0001578,"inclination_deg":43.0005,"raan_deg":199.5512,"arg_perigee_deg":272.9434,"mean_anomaly_deg":87.1253,"bstar":0.0010082,"rev_number":8062,"period_min":91.669626110203,"perigee_km":355.37982338203,"apogee_km":357.50525668486,"semimajor_km":6734.5795400334,"source":"CELESTRAK","updated_at":"2026-09-21T09:00:35.093617Z"}}